Change the Weather History Date:

Sunday, March 24, 2013

  Actual Average Record
Temperature  
Mean Temperature 74 °F -  
Max Temperature 82 °F 76 °F 88 °F (1965)
Min Temperature 66 °F 53 °F 38 °F (1968)
Cooling Degree Days 9    
Growing Degree Days 24 (Base 50)    
Moisture  
Dew Point 67 °F    
Average Humidity 84    
Maximum Humidity 96    
Minimum Humidity 60    
Precipitation  
Precipitation 0.10 in - - ()
Sea Level Pressure  
Sea Level Pressure 29.71 in    
Wind  
Wind Speed 11 mph (SSW)    
Max Wind Speed 28 mph    
Max Gust Speed 39 mph    
Visibility 9 miles    
Events Rain , Thunderstorm    
Averages and records for this station are not official NWS values.
T = Trace of Precipitation, MM = Missing Value Source: NWS Daily Summary

Daily Weather History Graph

Daily Weather History Graph

Search for Another Location

Airport or City:

Trip Planner

Search our weather history database for the weather conditions in past years. The results will help you decide how hot, cold, wet, or windy it might be!

Date:

Astronomy

Mar. 24, 2013 Rise Set
Actual Time 7:23 AM EDT 7:38 PM EDT
Civil Twilight 7:00 AM EDT 8:02 PM EDT
Nautical Twilight 6:32 AM EDT 8:30 PM EDT
Astronomical Twilight 6:04 AM EDT 8:57 PM EDT
Moon 5:15 PM EDT (3/24) 5:21 AM EDT (3/24)
Length of Visible Light 13h 02m
Length of Day
12h 14m
Waxing Gibbous, 91% of the Moon is Illuminated
Mar 24
Waxing Gibbous
Mar 27
Full
Apr 3
Last Quarter
Apr 10
New
Apr 18
First Quarter

Hourly Weather History & Observations

Time (EDT) Temp. Heat Index Dew Point Humidity Pressure Visibility Wind Dir Wind Speed Gust Speed Precip Events Conditions
12:53 AM 66.9 °F - 64.9 °F 93% 29.86 in 10.0 mi SE 6.9 mph - N/A   Mostly Cloudy
1:53 AM 68.0 °F - 66.0 °F 93% 29.82 in 10.0 mi SE 10.4 mph - N/A   Scattered Clouds
2:53 AM 68.0 °F - 66.0 °F 93% 29.79 in 10.0 mi SE 8.1 mph - N/A   Mostly Cloudy
3:53 AM 68.0 °F - 66.9 °F 96% 29.76 in 10.0 mi SSE 9.2 mph - N/A   Partly Cloudy
4:16 AM 68.0 °F - 66.2 °F 94% 29.75 in 10.0 mi SSE 8.1 mph - N/A   Scattered Clouds
4:43 AM 68.0 °F - 66.2 °F 94% 29.74 in 10.0 mi SSE 8.1 mph - N/A   Mostly Cloudy
4:47 AM 68.0 °F - 66.2 °F 94% 29.74 in 10.0 mi SSE 8.1 mph - N/A   Mostly Cloudy
4:53 AM 68.0 °F - 66.9 °F 96% 29.73 in 10.0 mi SSE 10.4 mph - N/A   Mostly Cloudy
5:06 AM 68.0 °F - 66.2 °F 94% 29.73 in 10.0 mi South 10.4 mph - N/A   Mostly Cloudy
5:53 AM 69.1 °F - 68.0 °F 96% 29.72 in 9.0 mi South 6.9 mph - N/A   Overcast
6:53 AM 70.0 °F - 66.9 °F 90% 29.70 in 10.0 mi South 6.9 mph - N/A   Overcast
7:34 AM 69.8 °F - 66.2 °F 88% 29.70 in 10.0 mi South 9.2 mph - N/A   Mostly Cloudy
7:53 AM 70.0 °F - 66.0 °F 87% 29.69 in 10.0 mi South 9.2 mph - N/A   Mostly Cloudy
8:00 AM 69.8 °F - 66.2 °F 88% 29.69 in 10.0 mi South 9.2 mph - N/A   Mostly Cloudy
8:42 AM 71.6 °F - 66.2 °F 83% 29.71 in 10.0 mi SW 10.4 mph - N/A   Overcast
8:53 AM 72.0 °F - 66.9 °F 84% 29.72 in 10.0 mi SW 8.1 mph - N/A   Overcast
9:43 AM 73.4 °F - 69.8 °F 88% 29.74 in 9.0 mi SW 11.5 mph - 0.00 in   Overcast
9:53 AM 73.9 °F - 69.1 °F 85% 29.73 in 9.0 mi SW 9.2 mph - 0.00 in   Overcast
10:53 AM 77.0 °F - 69.1 °F 76% 29.72 in 10.0 mi SW 13.8 mph 21.9 mph N/A   Mostly Cloudy
11:53 AM 82.0 °F 85.5 °F 69.1 °F 65% 29.70 in 10.0 mi SW 18.4 mph 31.1 mph 0.00 in Rain Light Rain
12:53 PM 82.0 °F 84.5 °F 66.9 °F 60% 29.69 in 10.0 mi SW 27.6 mph 36.8 mph 0.00 in Rain Light Rain
1:53 PM 81.0 °F 83.3 °F 66.9 °F 62% 29.66 in 10.0 mi WSW 23.0 mph 29.9 mph 0.00 in Rain Light Rain
2:18 PM 78.8 °F - 69.8 °F 74% 29.66 in 10.0 mi WSW 16.1 mph 27.6 mph 0.00 in Rain Light Rain
2:19 PM 78.8 °F - 69.8 °F 74% 29.67 in 10.0 mi WSW 13.8 mph 26.5 mph 0.00 in Rain , Thunderstorm Light Thunderstorms and Rain
2:53 PM 71.1 °F - 64.9 °F 81% 29.64 in 6.0 mi SW 21.9 mph 39.1 mph 0.09 in Rain , Thunderstorm Light Thunderstorms and Rain
3:53 PM 68.0 °F - 63.0 °F 84% 29.65 in 10.0 mi West 13.8 mph 26.5 mph 0.01 in Rain Light Rain
4:53 PM 75.9 °F - 68.0 °F 76% 29.64 in 10.0 mi WSW 17.3 mph 25.3 mph 0.00 in Rain Light Rain
5:53 PM 78.1 °F - 70.0 °F 76% 29.63 in 10.0 mi West 13.8 mph - 0.00 in   Scattered Clouds
6:53 PM 78.1 °F - 69.1 °F 74% 29.64 in 10.0 mi WSW 20.7 mph 28.8 mph N/A   Scattered Clouds
7:53 PM 75.0 °F - 69.1 °F 82% 29.66 in 8.0 mi WSW 12.7 mph - N/A   Clear
8:42 PM 73.4 °F - 68.0 °F 83% 29.68 in 8.0 mi WSW 11.5 mph - N/A   Mostly Cloudy
8:53 PM 73.0 °F - 68.0 °F 84% 29.69 in 8.0 mi WSW 13.8 mph - N/A   Mostly Cloudy
9:11 PM 73.4 °F - 68.0 °F 83% 29.69 in 8.0 mi WSW 11.5 mph - N/A   Partly Cloudy
9:53 PM 72.0 °F - 66.9 °F 84% 29.70 in 8.0 mi West 9.2 mph 18.4 mph N/A   Partly Cloudy
10:53 PM 70.0 °F - 66.0 °F 87% 29.72 in 8.0 mi WSW 9.2 mph - N/A   Clear
11:53 PM 68.0 °F - 64.0 °F 87% 29.72 in 8.0 mi WSW 11.5 mph - N/A   Clear